Wind_Speed
28 28 27 28 28 29 30 31 32 33 34 34 36 37 38 40 41 43 44 45 46 47 48 50 51 53 54 57 59 60 59 58 57 57 57 57 59 60 62 65 67 69 71
30 30 30 30 31 32 33 34 35 36 37 38 40 40 42 43 45 46 48 49 49 50 52 53 54 56 58 60 62 62 61 60 59 59 59 60 60 61 63 65 68 70 71
32 33 33 33 33 34 35 37 38 39 40 42 43 44 45 46 47 49 51 52 53 54 55 56 58 59 61 62 64 64 63 61 60 60 61 62 63 64 65 66 68 71 72
33 34 35 35 36 37 39 40 41 43 44 46 47 48 49 49 51 53 54 55 57 57 58 59 60 62 63 64 66 65 63 62 61 61 62 63 65 66 66 67 69 70 72
34 35 36 37 39 40 42 43 45 46 48 49 50 51 52 53 55 56 57 58 60 60 61 62 63 64 65 66 67 65 64 63 62 63 63 64 65 67 67 67 69 70 73
33 35 37 38 40 42 44 46 48 49 51 52 54 55 56 57 59 59 60 61 62 62 63 64 66 66 67 67 67 65 64 64 64 64 64 65 66 68 69 68 69 70 71
33 34 36 38 41 43 46 48 50 51 53 55 56 57 59 60 61 62 63 64 64 64 64 66 67 67 67 67 67 66 66 65 64 65 66 66 67 69 70 70 70 69 70
35 36 37 39 41 43 46 48 50 52 54 55 57 59 60 62 63 64 65 66 66 66 66 67 67 68 67 67 67 67 66 65 65 66 67 67 68 69 71 71 71 71 70
38 38 39 40 41 43 45 47 50 52 54 55 57 59 61 62 63 64 65 66 66 66 66 66 67 67 67 68 68 67 66 66 66 67 67 67 68 70 71 72 73 72 71
41 41 41 42 42 44 46 47 49 51 53 55 57 58 60 61 63 64 64 65 65 66 66 66 67 67 68 68 68 67 67 67 67 67 67 68 68 69 71 72 72 72 73
43 43 43 43 44 45 46 47 49 50 52 54 55 57 59 61 62 63 63 64 65 65 65 66 67 68 68 68 67 67 67 66 67 66 67 67 68 69 70 71 71 72 73
47 46 45 45 45 46 46 48 49 50 51 52 53 55 57 58 59 60 62 63 64 64 65 66 67 68 67 67 66 66 66 66 66 66 67 66 67 68 69 70 70 71 72
49 49 48 48 48 48 48 48 48 49 49 50 52 53 54 56 57 59 60 62 63 65 65 66 66 66 66 66 65 65 65 65 65 65 65 65 66 67 68 69 69 70 71
51 50 50 50 49 48 48 48 48 49 49 49 50 51 53 55 57 59 60 61 63 64 64 64 65 64 64 64 64 64 64 63 63 63 63 64 65 66 67 67 68 69 69
52 52 51 50 49 48 48 48 48 48 48 49 50 52 54 56 57 59 60 60 61 61 61 61 62 62 62 62 62 62 61 61 61 61 62 63 64 65 66 66 66 67 67
51 51 50 48 48 48 48 48 48 49 50 51 52 53 54 55 56 56 57 57 57 57 57 59 60 60 59 59 59 59 59 59 60 60 61 62 63 64 64 65 65 65 65
49 49 48 47 47 47 48 48 49 50 51 52 52 53 53 53 54 54 55 55 55 56 57 57 57 56 56 57 58 58 58 57 57 59 59 60 61 62 62 63 62 61 62
47 47 46 46 47 48 49 49 50 51 51 51 51 51 51 52 53 53 53 53 54 55 55 55 55 56 56 57 57 57 57 56 57 57 58 59 60 60 61 60 59 58 58
47 47 47 47 48 48 49 48 49 50 50 50 50 50 51 51 51 52 52 53 54 54 55 55 55 55 56 56 57 57 56 56 56 57 57 57 58 58 59 59 57 56 56
48 49 48 49 49 49 49 48 49 49 49 49 49 49 50 51 51 52 53 53 54 55 55 56 56 56 56 56 57 56 56 56 55 56 55 56 57 57 57 57 55 54 54
49 49 49 49 50 50 49 49 49 49 49 49 49 50 51 51 52 52 52 54 55 56 57 57 57 57 57 57 56 56 55 55 54 54 54 55 55 55 55 54 53 53 52
51 51 50 50 50 50 49 49 49 49 49 49 50 50 51 51 52 53 54 55 56 57 57 58 57 57 57 56 55 55 54 53 53 52 53 53 53 53 53 52 51 50 50
53 53 52 50 50 50 51 50 50 50 50 50 50 50 52 53 54 55 56 56 57 57 58 58 57 57 56 54 53 53 52 52 51 50 51 51 50 50 50 49 48 48 47
55 54 53 51 51 52 52 53 52 51 51 50 51 52 53 54 55 56 56 56 57 57 58 58 57 56 54 52 52 51 50 49 49 48 48 48 47 47 47 46 46 45 44
56 55 54 53 52 52 52 53 52 51 51 51 52 53 53 54 55 55 56 57 57 58 58 57 55 54 53 52 51 50 49 48 46 46 45 45 44 44 44 44 43 43 42
57 56 55 54 53 53 53 53 53 52 52 52 52 53 54 54 55 56 56 57 57 57 56 56 54 53 52 51 49 47 46 44 43 43 42 42 42 41 41 41 41 41 40
Wind_Direction
269 271 271 270 270 270 270 270 272 273 276 279 281 285 288 291 294 296 298 300 302 304 305 306 307 308 309 310 311 311 310 308 305 303 302 301 301 301 300 300 299 299 299
271 270 269 268 269 269 269 270 271 273 276 278 280 284 287 290 292 294 296 298 300 302 303 304 305 306 307 309 309 309 308 307 305 303 301 300 300 299 300 300 300 300 300
273 272 271 269 269 269 269 269 271 273 276 278 280 283 285 288 291 292 295 297 299 300 301 302 303 304 306 307 307 307 307 306 304 303 302 302 301 300 300 300 301 301 302
277 275 274 272 271 270 271 272 273 274 276 277 280 282 285 288 289 291 294 296 297 298 300 300 301 302 304 305 305 305 305 305 304 303 303 303 302 301 300 300 301 302 303
281 279 277 275 274 274 274 274 274 275 277 278 281 283 286 287 289 291 293 294 296 297 298 298 299 300 302 303 303 304 304 304 304 304 303 303 302 302 301 302 303 304 305
287 284 282 280 278 278 277 277 278 278 279 280 283 285 286 287 289 291 292 293 295 296 297 296 297 299 300 301 302 303 304 304 304 304 303 303 303 303 303 303 304 305 306
291 289 288 286 284 282 281 281 281 281 282 283 285 286 287 288 290 291 291 292 294 294 294 294 296 297 299 300 302 303 304 304 304 304 304 303 303 304 304 305 306 306 307
294 294 292 290 288 286 285 285 285 284 285 285 286 287 287 288 289 290 291 292 293 293 292 293 295 297 298 300 302 303 304 304 304 304 304 304 304 304 305 306 306 307 308
298 296 295 293 292 290 288 287 286 285 285 286 286 286 287 288 288 289 290 291 291 291 292 293 295 296 298 300 301 303 303 304 304 304 304 304 304 304 305 307 307 308 309
298 297 295 294 293 291 289 288 287 286 286 286 286 286 287 287 288 288 290 290 290 291 293 294 296 297 298 300 302 303 303 303 303 303 304 304 304 305 306 307 308 309 310
297 296 295 294 293 291 290 289 288 287 287 286 286 286 286 286 287 288 289 290 291 292 294 295 297 298 299 300 301 302 302 301 302 303 303 304 304 305 306 307 308 309 311
299 298 296 295 294 293 292 291 290 289 288 288 287 286 286 287 288 289 290 290 291 293 294 296 297 298 299 299 300 300 300 300 301 302 302 302 303 305 306 307 309 310 312
301 300 299 298 297 296 294 294 293 293 292 291 290 289 289 289 289 290 290 291 292 294 295 296 296 297 297 298 298 298 298 299 300 301 302 302 303 305 307 308 309 311 312
300 300 299 299 298 297 296 296 296 296 295 295 294 293 292 292 292 292 292 292 293 294 294 295 296 296 296 296 296 297 298 298 299 300 301 302 304 305 307 308 309 311 312
300 299 299 299 299 298 298 297 297 297 297 297 296 295 295 294 293 293 293 293 294 294 295 296 296 296 296 296 296 296 297 298 299 299 300 302 304 305 307 308 310 311 313
300 300 300 299 299 299 298 298 298 297 297 297 296 296 296 295 294 294 294 294 294 294 295 297 297 297 297 297 296 297 298 299 299 300 301 302 304 305 307 308 310 312 314
303 301 300 299 299 299 298 298 297 297 297 297 297 297 296 296 296 295 295 295 295 295 296 297 298 298 298 297 297 298 298 298 299 300 301 302 304 305 307 309 311 312 314
303 302 300 299 299 299 299 299 299 298 298 298 298 298 297 297 297 297 297 296 296 296 297 297 298 298 298 297 298 298 297 298 298 299 300 302 304 305 307 309 311 313 315
305 303 301 300 300 300 300 300 299 299 299 299 299 299 299 299 299 298 298 297 297 298 298 298 298 298 297 298 298 297 298 298 298 298 300 302 304 305 307 309 312 314 315
305 304 302 301 300 299 299 299 299 300 300 300 299 300 300 300 299 298 298 298 298 299 299 299 298 298 298 297 298 297 297 297 297 297 299 301 303 305 307 310 313 314 316
305 303 302 301 299 299 298 298 299 300 300 300 300 300 300 300 300 300 299 298 299 300 300 300 299 298 298 297 297 296 296 295 295 297 298 301 303 305 307 310 313 315 317
305 304 302 301 300 299 299 298 298 299 300 300 300 299 299 300 300 300 300 300 300 300 301 301 300 299 299 298 297 296 295 294 295 296 297 300 302 305 308 311 314 316 318
304 304 302 301 300 299 299 298 299 299 299 299 299 299 299 300 300 301 301 301 301 301 301 302 301 301 299 298 297 297 296 295 295 296 297 300 302 305 308 312 314 317 319
303 303 302 301 300 299 299 298 298 298 299 299 299 299 300 301 301 302 302 302 302 302 303 303 302 301 300 298 298 298 297 296 295 295 297 300 302 305 309 312 315 318 320
303 302 302 301 300 299 298 298 299 299 299 300 300 301 301 302 303 303 303 304 303 304 304 304 303 303 301 299 298 297 296 295 294 295 297 299 302 306 310 313 316 319 321
302 302 302 301 300 299 298 298 299 299 300 300 300 302 303 303 303 304 304 305 305 305 305 304 304 303 302 300 298 296 295 294 294 295 297 299 303 307 311 314 317 320 322
Height
5822 5821 5820 5819 5818 5817 5815 5813 5812 5810 5807 5805 5802 5800 5796 5793 5789 5785 5780 5776 5772 5767 5762 5757 5751 5746 5740 5734 5728 5721 5715 5708 5701 5695 5690 5684 5677 5669 5661 5654 5647 5639 5632
5815 5813 5812 5811 5810 5809 5807 5805 5803 5801 5799 5796 5793 5791 5787 5784 5779 5775 5770 5766 5762 5757 5751 5745 5740 5734 5728 5722 5715 5708 5701 5695 5688 5681 5675 5669 5664 5658 5649 5639 5630 5621 5613
5807 5806 5805 5803 5802 5800 5798 5796 5794 5791 5789 5786 5783 5780 5777 5773 5769 5764 5759 5755 5750 5745 5740 5734 5728 5722 5716 5709 5702 5695 5688 5681 5674 5667 5660 5653 5647 5640 5634 5625 5613 5603 5594
5799 5798 5796 5795 5793 5791 5788 5786 5784 5781 5779 5775 5773 5769 5766 5762 5758 5753 5749 5743 5738 5733 5728 5721 5715 5709 5703 5696 5689 5682 5675 5667 5660 5653 5645 5638 5630 5623 5616 5609 5598 5587 5576
5792 5790 5788 5786 5784 5782 5779 5777 5774 5771 5768 5764 5761 5758 5755 5751 5746 5742 5737 5731 5725 5720 5714 5708 5701 5695 5689 5682 5675 5668 5661 5653 5645 5638 5630 5622 5613 5604 5598 5592 5581 5570 5557
5784 5782 5779 5777 5775 5772 5770 5767 5764 5761 5757 5753 5750 5747 5743 5738 5734 5729 5724 5718 5713 5707 5700 5693 5687 5681 5675 5667 5660 5653 5646 5638 5630 5622 5613 5605 5596 5587 5578 5572 5564 5554 5541
5777 5774 5771 5768 5766 5763 5760 5757 5754 5750 5747 5743 5739 5735 5730 5725 5721 5716 5710 5704 5699 5693 5686 5678 5673 5666 5659 5652 5645 5637 5630 5622 5614 5606 5597 5588 5579 5569 5560 5552 5544 5536 5526
5769 5766 5763 5760 5757 5754 5750 5747 5743 5739 5735 5731 5727 5722 5717 5712 5707 5701 5695 5689 5684 5677 5670 5664 5657 5651 5644 5637 5629 5622 5614 5606 5598 5589 5580 5571 5561 5551 5541 5532 5523 5516 5508
5760 5757 5754 5750 5747 5743 5739 5735 5731 5727 5722 5718 5713 5708 5703 5697 5692 5686 5679 5674 5667 5661 5655 5648 5642 5635 5628 5621 5614 5606 5598 5590 5582 5573 5563 5554 5544 5534 5524 5514 5503 5494 5487
5751 5747 5743 5739 5735 5731 5727 5723 5718 5714 5709 5704 5699 5694 5688 5682 5676 5670 5664 5658 5651 5645 5639 5633 5626 5619 5612 5605 5598 5591 5582 5574 5565 5556 5547 5537 5527 5517 5507 5496 5485 5474 5464
5740 5736 5732 5728 5723 5719 5714 5709 5704 5699 5694 5689 5684 5678 5673 5666 5660 5654 5648 5642 5635 5629 5623 5617 5610 5604 5597 5589 5582 5575 5566 5558 5549 5540 5530 5521 5510 5500 5490 5479 5468 5457 5445
5727 5723 5719 5715 5710 5706 5701 5696 5691 5685 5680 5674 5669 5663 5657 5651 5645 5639 5633 5626 5620 5614 5608 5601 5594 5588 5581 5573 5566 5558 5550 5541 5533 5523 5514 5504 5494 5484 5474 5463 5452 5440 5428
5712 5708 5704 5700 5696 5691 5686 5681 5676 5671 5665 5659 5653 5648 5642 5635 5630 5624 5618 5611 5605 5598 5592 5585 5578 5571 5564 5557 5549 5541 5533 5525 5516 5507 5498 5488 5479 5469 5458 5447 5436 5425 5413
5698 5694 5690 5686 5681 5676 5672 5667 5661 5656 5650 5644 5638 5632 5626 5620 5614 5608 5602 5596 5589 5583 5576 5569 5562 5555 5548 5540 5533 5525 5517 5509 5501 5491 5482 5473 5464 5454 5443 5432 5421 5409 5398
5684 5680 5675 5671 5666 5662 5657 5652 5646 5641 5635 5630 5624 5618 5612 5605 5599 5592 5586 5580 5573 5566 5559 5552 5546 5538 5531 5524 5516 5509 5501 5493 5485 5476 5467 5458 5449 5439 5428 5418 5407 5395 5383
5671 5666 5661 5656 5652 5647 5642 5638 5632 5627 5621 5615 5609 5603 5596 5590 5583 5576 5570 5564 5557 5551 5544 5537 5529 5522 5515 5508 5500 5493 5485 5477 5469 5461 5452 5443 5434 5424 5414 5403 5392 5381 5369
5658 5653 5648 5643 5638 5633 5628 5623 5618 5612 5606 5600 5594 5588 5581 5575 5568 5562 5555 5549 5542 5535 5529 5521 5514 5507 5500 5492 5484 5477 5470 5462 5455 5446 5438 5429 5420 5410 5401 5390 5379 5368 5355
5646 5640 5635 5630 5625 5620 5614 5609 5603 5597 5592 5586 5580 5574 5567 5560 5553 5547 5540 5534 5527 5520 5513 5506 5499 5492 5485 5477 5469 5461 5454 5448 5440 5432 5424 5416 5407 5397 5387 5378 5368 5356 5345
5634 5628 5623 5617 5612 5607 5601 5595 5589 5583 5577 5572 5566 5559 5553 5546 5539 5532 5526 5519 5512 5505 5498 5491 5484 5477 5470 5462 5454 5446 5440 5433 5426 5418 5410 5402 5394 5384 5374 5366 5357 5346 5335
5622 5616 5610 5604 5599 5593 5588 5582 5576 5570 5564 5558 5552 5545 5538 5532 5525 5518 5511 5504 5498 5491 5483 5476 5469 5462 5455 5447 5439 5431 5425 5419 5412 5404 5397 5389 5380 5372 5362 5353 5344 5334 5324
5611 5604 5598 5592 5586 5580 5575 5569 5563 5557 5551 5544 5538 5531 5524 5517 5510 5503 5496 5489 5483 5476 5468 5461 5454 5446 5439 5431 5424 5417 5410 5404 5397 5390 5383 5376 5368 5359 5350 5341 5332 5323 5313
5598 5591 5585 5579 5573 5567 5561 5556 5550 5544 5537 5531 5524 5517 5510 5503 5496 5489 5482 5474 5467 5460 5452 5445 5438 5430 5423 5416 5409 5402 5395 5389 5383 5376 5369 5363 5355 5347 5339 5330 5322 5312 5303
5585 5579 5572 5566 5559 5553 5547 5542 5536 5530 5524 5517 5510 5503 5496 5489 5482 5475 5467 5460 5452 5444 5437 5430 5422 5415 5407 5400 5393 5387 5381 5374 5369 5363 5357 5350 5343 5336 5328 5320 5311 5303 5293
5572 5566 5559 5553 5547 5540 5533 5527 5522 5516 5510 5503 5496 5489 5482 5475 5467 5460 5452 5444 5437 5429 5421 5414 5406 5399 5392 5385 5379 5373 5367 5361 5356 5350 5345 5338 5332 5325 5318 5310 5302 5293 5284
5558 5552 5545 5539 5533 5527 5520 5513 5508 5502 5496 5489 5482 5475 5468 5461 5453 5445 5437 5430 5422 5413 5406 5398 5391 5384 5377 5371 5365 5359 5353 5348 5343 5338 5333 5327 5321 5315 5308 5301 5293 5284 5276
5544 5538 5531 5525 5519 5513 5506 5500 5494 5488 5481 5475 5468 5461 5454 5446 5439 5432 5424 5415 5407 5399 5391 5383 5376 5369 5363 5356 5351 5345 5340 5335 5331 5327 5322 5317 5311 5305 5299 5292 5284 5276 5268